TimePST,TemperatureF,Dew PointF,Humidity,Sea Level PressureIn,VisibilityMPH,Wind Direction,Wind SpeedMPH,Gust SpeedMPH,PrecipitationIn,Events,Conditions,WindDirDegrees,DateUTC
12:10 AM,42.8,26.6,53,29.73,10.0,SSW,21.9,29.9,N/A,,Mostly Cloudy,200,2013-03-06 08:10:00
12:35 AM,41.0,24.8,53,29.72,10.0,SW,32.2,46.0,N/A,,Scattered Clouds,220,2013-03-06 08:35:00
12:50 AM,39.2,24.8,56,29.71,10.0,SSW,38.0,47.2,N/A,,Clear,200,2013-03-06 08:50:00
1:10 AM,39.2,24.8,56,29.71,10.0,SSW,34.5,43.7,N/A,,Clear,200,2013-03-06 09:10:00
1:35 AM,39.2,23.0,52,29.72,10.0,SSW,31.1,51.8,N/A,,Clear,210,2013-03-06 09:35:00
1:50 AM,37.4,24.8,60,29.72,10.0,SSW,26.5,42.6,N/A,,Scattered Clouds,210,2013-03-06 09:50:00
2:10 AM,37.4,24.8,60,29.70,10.0,SSW,33.4,43.7,N/A,,Mostly Cloudy,210,2013-03-06 10:10:00
2:30 AM,37.4,26.6,65,29.71,10.0,SSW,33.4,44.9,N/A,,Mostly Cloudy,210,2013-03-06 10:30:00
2:50 AM,37.4,28.4,70,29.71,9.0,SSW,20.7,36.8,N/A,Rain,Light Rain,210,2013-03-06 10:50:00
3:10 AM,35.6,28.4,75,29.70,9.0,SSW,25.3,33.4,N/A,,Mostly Cloudy,200,2013-03-06 11:10:00
3:30 AM,39.2,24.8,56,29.69,10.0,SW,34.5,49.5,N/A,,Partly Cloudy,230,2013-03-06 11:30:00
3:50 AM,37.4,26.6,65,29.71,5.0,SSW,42.6,59.8,N/A,Snow,Light Snow,210,2013-03-06 11:50:00
4:10 AM,37.4,26.6,65,29.69,10.0,SW,36.8,48.3,N/A,,Mostly Cloudy,220,2013-03-06 12:10:00
4:30 AM,35.6,28.4,75,29.70,4.0,SW,32.2,49.5,N/A,Snow,Light Snow,220,2013-03-06 12:30:00
4:50 AM,37.4,28.4,70,29.70,5.0,SW,32.2,46.0,N/A,Snow,Light Snow,220,2013-03-06 12:50:00
5:10 AM,35.6,28.4,75,29.71,5.0,SSW,28.8,36.8,N/A,Snow,Light Snow,210,2013-03-06 13:10:00
5:35 AM,35.6,26.6,70,29.71,5.0,SSW,19.6,43.7,N/A,,Haze,210,2013-03-06 13:35:00
6:10 AM,33.8,28.4,81,29.72,3.0,SSW,18.4,28.8,N/A,Snow,Light Snow,210,2013-03-06 14:10:00
6:30 AM,35.6,26.6,70,29.74,7.0,SW,20.7,27.6,N/A,Snow,Light Snow,220,2013-03-06 14:30:00
6:50 AM,33.8,30.2,87,29.76,1.5,WSW,10.4,-,N/A,Snow,Light Snow,240,2013-03-06 14:50:00
7:10 AM,32.0,30.2,93,29.78,1.0,WSW,10.4,-,N/A,Snow,Light Snow,250,2013-03-06 15:10:00
7:30 AM,32.0,28.4,87,29.77,2.5,WSW,21.9,35.7,N/A,Snow,Light Snow,240,2013-03-06 15:30:00
7:50 AM,35.6,24.8,65,29.78,6.0,WSW,20.7,38.0,N/A,Rain,Light Rain,250,2013-03-06 15:50:00
8:15 AM,32.0,28.4,87,29.82,0.2,WSW,21.9,31.1,N/A,Snow,Heavy Snow,250,2013-03-06 16:15:00
8:55 AM,32.0,23.0,69,29.84,3.0,WSW,34.5,43.7,N/A,Snow,Light Snow,250,2013-03-06 16:55:00
9:10 AM,32.0,21.2,64,29.84,9.0,WSW,27.6,40.3,N/A,Rain,Light Rain,250,2013-03-06 17:10:00
9:30 AM,33.8,21.2,60,29.84,10.0,SW,31.1,46.0,N/A,,Clear,230,2013-03-06 17:30:00
9:50 AM,35.6,19.4,52,29.86,10.0,WSW,29.9,42.6,N/A,,Clear,250,2013-03-06 17:50:00
10:15 AM,33.8,24.8,70,29.87,10.0,West,32.2,40.3,N/A,Rain,Light Rain,270,2013-03-06 18:15:00
10:55 AM,35.6,23.0,60,29.90,8.0,WSW,27.6,38.0,N/A,Rain,Light Rain,250,2013-03-06 18:55:00
11:10 AM,33.8,23.0,65,29.91,7.0,WSW,24.2,31.1,N/A,Rain,Light Rain,250,2013-03-06 19:10:00
11:30 AM,37.4,19.4,48,29.91,10.0,WSW,20.7,39.1,N/A,,Clear,240,2013-03-06 19:30:00
11:55 AM,37.4,19.4,48,29.92,8.0,WSW,32.2,42.6,N/A,Rain,Light Rain,240,2013-03-06 19:55:00
12:10 PM,37.4,21.2,52,29.91,10.0,WSW,26.5,40.3,N/A,Rain,Light Rain,250,2013-03-06 20:10:00
12:35 PM,37.4,19.4,48,29.91,10.0,West,28.8,38.0,N/A,,Clear,270,2013-03-06 20:35:00
12:50 PM,37.4,21.2,52,29.91,10.0,West,20.7,32.2,N/A,,Clear,260,2013-03-06 20:50:00
1:10 PM,39.2,17.6,42,29.91,10.0,WSW,24.2,44.9,N/A,,Clear,250,2013-03-06 21:10:00
1:30 PM,39.2,17.6,42,29.91,10.0,West,23.0,31.1,N/A,,Clear,260,2013-03-06 21:30:00
1:50 PM,39.2,15.8,39,29.92,10.0,WSW,25.3,33.4,N/A,,Partly Cloudy,250,2013-03-06 21:50:00
2:10 PM,37.4,17.6,45,29.91,10.0,WSW,29.9,40.3,N/A,,Clear,250,2013-03-06 22:10:00
2:35 PM,39.2,15.8,39,29.91,10.0,WSW,26.5,38.0,N/A,,Clear,250,2013-03-06 22:35:00
2:55 PM,39.2,15.8,39,29.90,10.0,WSW,26.5,36.8,N/A,,Clear,240,2013-03-06 22:55:00
3:10 PM,39.2,15.8,39,29.91,10.0,WSW,23.0,32.2,N/A,,Clear,240,2013-03-06 23:10:00
3:30 PM,39.2,15.8,39,29.92,10.0,WSW,19.6,28.8,N/A,,Clear,240,2013-03-06 23:30:00
3:50 PM,37.4,19.4,48,29.93,10.0,WSW,16.1,20.7,N/A,,Clear,250,2013-03-06 23:50:00
4:10 PM,37.4,15.8,41,29.93,10.0,WSW,15.0,19.6,N/A,,Clear,240,2013-03-07 00:10:00
4:30 PM,35.6,17.6,48,29.94,10.0,WSW,12.7,21.9,N/A,,Partly Cloudy,250,2013-03-07 00:30:00
4:50 PM,35.6,17.6,48,29.94,10.0,WSW,11.5,19.6,N/A,,Clear,240,2013-03-07 00:50:00
5:10 PM,35.6,17.6,48,29.92,10.0,WSW,17.3,24.2,N/A,,Clear,240,2013-03-07 01:10:00
5:30 PM,35.6,17.6,48,29.91,10.0,WSW,21.9,31.1,N/A,,Clear,240,2013-03-07 01:30:00
5:50 PM,33.8,15.8,48,29.91,10.0,SW,16.1,27.6,N/A,,Clear,230,2013-03-07 01:50:00
6:10 PM,32.0,15.8,51,29.92,10.0,East,8.1,-,N/A,,Partly Cloudy,80,2013-03-07 02:10:00
6:30 PM,32.0,17.6,55,29.93,10.0,NE,9.2,-,N/A,,Mostly Cloudy,50,2013-03-07 02:30:00
6:50 PM,32.0,17.6,55,29.95,10.0,SSW,4.6,-,N/A,,Overcast,210,2013-03-07 02:50:00
7:10 PM,33.8,14.0,44,29.93,10.0,West,20.7,38.0,N/A,,Scattered Clouds,260,2013-03-07 03:10:00
7:30 PM,32.0,17.6,55,29.91,10.0,WSW,24.2,31.1,N/A,,Clear,250,2013-03-07 03:30:00
7:50 PM,32.0,17.6,55,29.92,10.0,WSW,19.6,33.4,N/A,,Clear,240,2013-03-07 03:50:00
8:10 PM,32.0,17.6,55,29.92,10.0,WSW,18.4,25.3,N/A,,Clear,240,2013-03-07 04:10:00
8:30 PM,32.0,19.4,60,29.94,10.0,NNW,5.8,19.6,N/A,,Clear,330,2013-03-07 04:30:00
8:50 PM,32.0,17.6,55,29.94,10.0,NW,6.9,-,N/A,,Partly Cloudy,310,2013-03-07 04:50:00
9:10 PM,32.0,19.4,60,29.95,10.0,WSW,16.1,21.9,N/A,,Clear,250,2013-03-07 05:10:00
9:30 PM,32.0,19.4,60,29.96,10.0,NW,9.2,-,N/A,,Clear,310,2013-03-07 05:30:00
9:50 PM,28.4,19.4,69,29.95,10.0,WNW,13.8,-,N/A,,Clear,290,2013-03-07 05:50:00
10:10 PM,30.2,19.4,64,29.95,10.0,West,10.4,-,N/A,,Clear,270,2013-03-07 06:10:00
10:30 PM,28.4,17.6,64,29.96,10.0,North,5.8,-,N/A,,Clear,360,2013-03-07 06:30:00
10:55 PM,26.6,17.6,69,29.96,10.0,NNW,6.9,-,N/A,,Clear,330,2013-03-07 06:55:00
11:10 PM,28.4,17.6,64,29.95,10.0,WNW,4.6,-,N/A,,Clear,300,2013-03-07 07:10:00
11:30 PM,26.6,17.6,69,29.95,10.0,NW,5.8,-,N/A,,Clear,320,2013-03-07 07:30:00
11:50 PM,26.6,17.6,69,29.94,10.0,Calm,Calm,-,N/A,,Clear,0,2013-03-07 07:50:00